Location: Camp at the Woods
(43.2055°N, 93.0905°W)
Time: 07:09:18
(UTC+00:00)

Cosmos 2151 - Pass Details

Date: 05 December 2023
Orbit: 572 x 592 km, 82.5° (Epoch: 29 February)

Event Time Altitude Azimuth Distance (km) Brightness Sun altitude
Rises 12:12:42 0° 192° (SSW) 2,775 6.5 -13.4°
Reaches altitude 10° 12:14:52 10° 195° (SSW) 1,884 5.6 -13.0°
Maximum altitude 12:19:01 71° 279° (W) 619 2.8 -12.3°
Drops below altitude 10° 12:23:14 10° 4° (N) 1,914 5.4 -11.6°
Sets 12:25:27 0° 7° (N) 2,822 6.3 -11.2°
